USA 342

Last updated on Wed Feb 04 2026 00:02:54 GMT+0000 (Coordinated Universal Time)

1 55263U 23008A 26032.28139338 .00000129 00000+0 00000+0 0 9994 2 55263 0.0111 81.4925 0000247 329.2183 205.9006 1.00273649 11158
UTC large
Height (km)
Speed (km/s)
/
Latitude / Longitude
Inclination (degrees)
Orbital Period (minutes)
Azimuth
Elevation
Range (km)
Doppler Factor

Next 0 passes for location: London (51.5072 / 0.1276)

Sorry there are no passes over London.